VCC C (44430 NORAD) Tracking and Keplerian Element Data

This shows tracking and keplerian element data for the satellite.

Feedback or suggestion? Click here.




ElementValue
Catalog44430
NameVCC C
Epoch Orbit1575
Epoch Day293.00414563
Epoch Year2019
RAAN100.8913
Inclination51.6405
Eccentricity0.0003641
Argument of Perigee157.0778
Mean Anonmoly203.0375
Mean Motion15.53343679
Decay Rate0.00010451
L11 44430U 98067QQ 19293.00414563 .00010451 00000-0 16959-3 0 9996
L22 44430 51.6405 100.8913 0003641 157.0778 203.0375 15.53343679 15753

Live tracking and technical data element details for VCC C (NORAD 44430). VCC C can be tracked NOW for your location showing map with azimuth and elevation plus other details from your city location.

Track the satellite on the map from your city or location and see movement details for azimuth, elevation, latitude, longitude, range, height, and movement on the map or in text.







IsCatalogInMostPopularTable: catalog: 44430, numindb: 23
Update: records affected: 1



GetName: 44430 VCC C

Hit Count: updated at: Wed, 23 Oct 2019 00:00:38 GMT